TimeHST,TemperatureF,Dew PointF,Humidity,Sea Level PressureIn,VisibilityMPH,Wind Direction,Wind SpeedMPH,Gust SpeedMPH,PrecipitationIn,Events,Conditions,WindDirDegrees,DateUTC
12:53 AM,69.1,59.0,70,29.96,10.0,WSW,6.9,-,N/A,,Overcast,240,2012-12-08 10:53:00
1:53 AM,68.0,64.9,90,29.95,10.0,SW,4.6,-,0.00,,Mostly Cloudy,230,2012-12-08 11:53:00
2:53 AM,66.9,61.0,81,29.93,10.0,SW,4.6,-,N/A,,Clear,220,2012-12-08 12:53:00
3:53 AM,66.9,57.9,73,29.93,10.0,SW,8.1,-,N/A,,Clear,230,2012-12-08 13:53:00
4:53 AM,66.0,57.9,75,29.94,10.0,WSW,6.9,-,N/A,,Clear,240,2012-12-08 14:53:00
5:53 AM,66.0,57.9,75,29.95,10.0,SW,6.9,-,N/A,,Scattered Clouds,230,2012-12-08 15:53:00
6:53 AM,66.0,57.0,73,29.96,10.0,SW,6.9,-,N/A,,Scattered Clouds,230,2012-12-08 16:53:00
7:53 AM,69.1,59.0,70,29.98,10.0,SW,6.9,-,N/A,,Mostly Cloudy,230,2012-12-08 17:53:00
8:53 AM,73.9,64.0,71,29.98,10.0,South,3.5,-,N/A,,Scattered Clouds,190,2012-12-08 18:53:00
9:53 AM,78.1,66.0,66,29.99,10.0,SE,6.9,-,N/A,,Scattered Clouds,140,2012-12-08 19:53:00
10:53 AM,80.1,63.0,56,29.97,10.0,SSE,9.2,-,N/A,,Scattered Clouds,150,2012-12-08 20:53:00
11:53 AM,81.0,64.0,56,29.96,10.0,East,8.1,-,N/A,,Mostly Cloudy,90,2012-12-08 21:53:00
12:53 PM,80.1,66.0,62,29.94,10.0,East,10.4,-,N/A,,Mostly Cloudy,100,2012-12-08 22:53:00
1:53 PM,80.1,66.9,64,29.92,10.0,East,9.2,-,N/A,,Mostly Cloudy,100,2012-12-08 23:53:00
2:53 PM,77.0,66.9,71,29.92,10.0,East,12.7,-,N/A,,Mostly Cloudy,100,2012-12-09 00:53:00
3:23 PM,73.4,69.8,88,29.92,1.8,East,8.1,-,0.00,Rain,Rain,100,2012-12-09 01:23:00
3:28 PM,73.4,69.8,88,29.92,2.5,ESE,5.8,-,0.01,Rain,Light Rain,110,2012-12-09 01:28:00
3:37 PM,73.4,69.8,88,29.92,4.0,ESE,3.5,-,0.02,Rain,Light Rain,120,2012-12-09 01:37:00
3:53 PM,72.0,69.1,91,29.92,2.0,Calm,Calm,-,0.03,Rain,Light Rain,0,2012-12-09 01:53:00
4:02 PM,71.6,68.0,88,29.93,1.5,Calm,Calm,-,0.03,Rain,Rain,0,2012-12-09 02:02:00
4:06 PM,71.6,69.8,94,29.93,3.0,Calm,Calm,-,0.04,Rain,Light Rain,0,2012-12-09 02:06:00
4:30 PM,73.4,69.8,88,29.93,3.0,WSW,5.8,-,0.06,,Overcast,240,2012-12-09 02:30:00
4:47 PM,71.6,69.8,94,29.94,2.5,Calm,Calm,-,0.06,Rain,Rain,0,2012-12-09 02:47:00
4:53 PM,72.0,69.1,91,29.94,1.8,Calm,Calm,-,0.08,Rain,Rain,0,2012-12-09 02:53:00
4:55 PM,71.6,69.8,94,29.94,2.0,Calm,Calm,-,0.01,Rain,Heavy Rain,0,2012-12-09 02:55:00
5:09 PM,71.6,69.8,94,29.94,2.0,Calm,Calm,-,0.06,Rain,Light Rain,0,2012-12-09 03:09:00
5:30 PM,71.6,69.8,94,29.95,2.0,West,3.5,-,0.09,Rain,Rain,260,2012-12-09 03:30:00
5:41 PM,71.6,69.8,94,29.96,2.0,WSW,4.6,-,0.11,Rain,Rain,240,2012-12-09 03:41:00
5:53 PM,72.0,69.1,91,29.96,2.0,SSW,4.6,-,0.11,Rain,Light Rain,210,2012-12-09 03:53:00
5:56 PM,71.6,69.8,94,29.96,7.0,WSW,3.5,-,0.02,Rain,Light Rain,240,2012-12-09 03:56:00
6:19 PM,71.6,68.0,88,29.97,10.0,WSW,5.8,-,0.02,Rain,Light Rain,250,2012-12-09 04:19:00
6:31 PM,71.6,69.8,94,29.98,5.0,West,3.5,-,0.02,Rain,Light Rain,260,2012-12-09 04:31:00
6:53 PM,71.1,68.0,90,29.98,5.0,West,6.9,-,0.05,Rain,Light Rain,260,2012-12-09 04:53:00
7:51 PM,71.6,68.0,88,30.00,7.0,West,9.2,-,0.00,Rain,Light Rain,270,2012-12-09 05:51:00
7:53 PM,71.1,68.0,90,30.00,7.0,West,10.4,-,0.00,Rain,Light Rain,270,2012-12-09 05:53:00
8:53 PM,71.1,66.9,87,30.02,10.0,West,4.6,-,0.01,,Overcast,270,2012-12-09 06:53:00
9:40 PM,69.8,66.2,88,30.03,10.0,Calm,Calm,-,0.00,,Overcast,0,2012-12-09 07:40:00
9:53 PM,70.0,66.9,90,30.02,10.0,West,4.6,-,0.00,Rain,Light Rain,270,2012-12-09 07:53:00
10:08 PM,71.6,66.2,83,30.03,7.0,WSW,3.5,-,0.00,Rain,Rain,240,2012-12-09 08:08:00
10:53 PM,70.0,66.9,90,30.01,10.0,Variable,3.5,-,0.01,,Mostly Cloudy,0,2012-12-09 08:53:00
11:53 PM,70.0,66.0,87,30.01,9.0,SW,4.6,-,0.00,Rain,Light Rain,220,2012-12-09 09:53:00